Theta_e
345 336 338 340 337 334 335 337 338 338 338 338 338 338 338 339 339 339 339 339 339 339 339 339 340 342 343 344 344 344 344 343 342 340 337 336 335 331 334 335 337 337 331
341 340 338 338 336 335 335 336 337 336 336 336 336 336 336 336 336 337 337 337 337 337 338 338 338 338 338 339 340 340 342 343 344 345 344 344 340 336 335 337 345 345 341
342 340 336 335 334 333 333 333 333 332 332 331 332 332 333 334 334 334 335 336 336 337 337 338 338 337 337 337 337 336 336 336 336 337 340 343 341 342 341 338 337 345 345
342 339 336 333 332 332 332 332 332 333 334 335 336 337 338 338 339 339 337 334 333 336 341 344 342 339 338 340 340 340 340 339 339 339 339 337 336 336 338 340 342 341 339
340 339 335 333 333 333 334 334 336 338 340 338 339 338 335 336 339 336 334 332 332 332 334 332 330 331 332 333 334 334 334 336 343 345 340 340 340 340 337 334 336 341 342
340 340 336 335 335 335 337 339 339 340 335 333 334 331 331 333 334 327 327 327 326 328 328 328 329 329 328 329 330 333 335 341 345 339 337 335 335 336 338 339 338 336 341
341 338 337 337 338 340 331 330 330 329 330 331 330 328 329 328 327 326 326 325 325 326 326 325 325 325 324 323 325 328 330 338 343 339 338 336 338 342 344 343 340 338 338
339 339 339 340 340 328 330 330 329 329 329 330 328 327 323 318 317 318 318 319 320 321 321 320 320 319 319 319 317 318 324 328 329 329 330 332 335 339 344 346 345 345 340
340 341 342 337 326 329 329 328 326 327 328 325 320 316 316 316 316 314 314 314 314 314 314 315 315 314 315 317 317 319 321 320 321 323 325 328 333 339 342 340 340 343 346
344 343 333 325 329 328 326 325 323 322 320 318 317 319 319 319 319 318 315 315 315 315 315 315 315 315 315 315 314 319 320 319 318 319 318 319 320 325 333 334 332 338 344
344 332 327 329 330 329 327 326 324 323 321 320 320 320 321 321 320 319 317 317 318 318 319 318 317 318 317 317 316 316 315 313 314 311 314 316 320 325 329 334 336 331 334
338 329 328 329 330 330 330 326 325 323 321 321 321 322 322 320 320 319 320 320 321 320 320 319 319 320 319 319 318 317 315 314 312 311 313 317 318 321 326 329 333 330 330
328 328 328 328 329 328 329 327 325 322 321 322 323 322 322 320 319 318 319 321 321 321 320 320 320 320 319 317 316 314 312 312 313 313 312 316 319 323 325 325 327 331 332
328 327 327 328 326 324 325 324 324 323 322 323 322 321 320 318 317 318 320 321 321 319 320 321 319 317 316 314 313 313 313 314 314 313 312 314 317 322 322 323 325 328 327
327 326 327 328 323 322 322 323 322 321 321 322 321 319 318 317 318 319 318 317 315 315 314 314 314 314 314 314 314 314 314 312 311 310 311 311 316 317 318 322 323 322 324
327 326 326 324 322 321 322 322 321 321 321 320 319 317 317 317 317 316 310 309 308 307 307 308 311 313 313 313 313 313 312 311 310 310 311 312 314 315 317 319 319 322 325
327 325 325 323 322 322 322 321 321 320 320 318 316 315 314 310 310 308 310 310 309 310 310 309 310 311 311 312 312 311 310 310 310 310 311 311 311 313 316 318 321 322 322
325 324 324 324 323 322 321 321 320 319 317 315 315 312 310 310 311 310 311 310 311 311 310 309 309 310 310 310 310 310 310 310 311 311 312 312 313 313 316 315 319 320 324
323 323 323 323 322 321 320 319 319 316 315 315 314 312 312 312 312 311 311 311 311 310 309 308 308 308 310 310 311 311 312 312 312 312 312 312 313 314 314 315 317 319 319
323 323 323 322 322 321 320 320 318 316 315 316 315 314 312 312 313 312 312 311 310 309 308 308 309 310 310 311 311 311 311 311 312 312 312 313 313 314 315 316 315 315 320
324 323 322 322 322 321 320 321 318 317 317 316 315 313 312 313 313 311 310 309 310 309 308 308 309 309 309 310 310 310 310 311 312 312 312 314 314 315 315 313 317 320 321
323 324 324 322 321 321 321 319 318 317 317 316 315 314 312 313 311 310 309 310 309 308 308 307 308 309 308 310 311 310 313 312 312 311 313 313 314 314 312 315 319 320 323
324 324 323 322 322 323 321 320 318 317 316 316 314 313 314 311 309 309 309 310 309 308 306 308 308 307 307 308 308 309 314 314 312 311 312 314 313 312 312 316 316 319 322
327 325 323 325 325 323 320 318 316 315 314 314 314 313 310 309 309 309 309 308 308 307 306 307 307 306 306 307 307 308 309 311 313 313 311 311 311 311 312 312 317 320 321
327 327 326 325 324 320 318 318 317 316 315 312 309 308 308 308 308 307 308 308 308 306 305 305 306 305 305 305 305 307 310 310 310 311 313 311 310 311 312 312 319 319 321
325 325 324 322 320 318 317 316 315 312 310 309 308 307 308 308 307 305 306 307 306 305 304 305 306 305 305 306 306 307 309 310 309 310 311 311 311 312 312 316 317 319 319
Wind_Speed
12 10 9 9 10 13 15 15 17 17 18 18 18 17 16 16 15 14 13 11 10 9 8 8 7 7 7 7 7 7 7 7 7 7 6 5 4 3 3 3 4 3 4
15 12 12 10 11 13 16 16 17 17 17 18 18 17 16 15 14 13 12 12 11 10 9 9 9 8 8 8 9 9 8 8 8 8 7 7 6 5 6 6 7 7 8
14 13 14 13 14 15 16 17 17 17 18 18 18 18 17 16 16 15 14 14 13 13 12 12 12 11 11 11 11 12 12 11 11 11 11 11 10 9 7 8 10 11 11
14 14 14 15 16 16 17 17 17 17 18 18 18 18 18 17 17 16 16 15 14 13 13 13 13 13 12 13 13 14 14 14 14 13 13 13 14 13 11 11 13 14 15
15 14 15 15 17 17 17 17 17 17 18 18 18 18 17 17 16 15 14 14 13 14 14 14 14 14 14 14 14 13 14 14 13 14 16 16 16 16 15 14 14 16 19
17 16 16 16 17 18 17 17 16 17 18 18 18 17 17 17 16 16 16 17 16 16 16 17 18 17 17 16 15 15 15 14 15 15 16 16 17 17 17 17 17 17 18
19 18 17 17 18 19 20 18 18 19 17 17 18 19 20 19 17 15 15 15 15 15 15 16 16 17 17 17 17 16 16 16 14 15 15 16 16 16 16 16 18 18 18
20 18 19 18 18 23 23 23 21 20 20 20 19 18 18 19 19 18 18 18 18 18 19 20 20 20 20 19 18 17 16 16 15 16 16 15 14 15 15 17 17 18 19
19 18 19 21 24 23 23 21 20 19 19 18 18 20 21 21 21 22 21 20 19 20 21 20 20 22 21 21 20 19 17 17 17 17 17 16 15 16 16 17 18 19 19
20 20 23 26 25 23 22 21 21 20 19 19 17 17 19 20 21 21 20 20 19 20 23 22 21 24 23 22 20 18 18 20 20 20 20 19 17 19 18 17 17 17 19
20 23 25 26 24 22 21 20 18 17 17 16 16 15 15 16 18 19 19 20 21 20 22 24 22 24 25 24 23 22 23 24 27 26 24 21 21 20 20 19 17 19 18
24 26 26 26 25 22 19 18 16 15 13 14 13 12 12 13 14 14 15 17 17 18 21 23 22 23 24 24 26 27 29 30 32 29 25 22 22 22 20 20 19 20 20
31 28 28 28 25 23 23 21 17 14 13 12 11 10 11 12 14 15 16 17 16 19 21 20 21 22 23 25 28 31 32 30 27 23 23 22 22 21 20 23 22 20 21
33 32 28 24 22 21 20 18 17 15 13 12 9 8 11 14 15 15 16 17 18 21 21 22 24 25 26 28 29 29 27 26 26 28 29 26 23 21 24 24 22 22 24
33 30 27 24 23 21 19 19 18 16 11 9 7 7 9 13 15 14 16 18 20 21 24 28 29 29 29 27 26 24 26 30 33 34 33 31 24 26 25 23 24 25 25
17 21 24 27 23 20 19 19 16 12 10 8 6 8 10 11 12 14 15 17 19 22 25 27 27 27 28 28 29 28 30 33 34 33 32 29 26 24 24 25 26 26 25
27 27 25 25 20 19 19 16 14 13 9 6 7 7 8 8 10 10 13 18 18 20 23 26 26 26 27 27 28 31 33 33 33 33 32 31 28 26 23 23 23 24 26
22 21 22 23 21 18 16 13 11 9 6 7 6 6 6 7 9 10 16 19 18 20 25 24 23 24 26 29 29 29 29 30 32 32 31 27 26 24 22 24 23 24 24
24 24 21 19 19 16 13 11 8 7 6 5 5 5 6 6 9 12 16 18 19 23 22 23 23 22 23 25 23 22 27 28 30 26 25 25 21 23 26 25 23 25 28
22 20 20 17 14 14 11 6 4 4 2 4 6 7 8 9 10 13 15 20 22 20 23 23 23 21 23 21 18 19 21 26 20 24 25 23 32 20 22 22 28 29 27
19 18 14 9 9 7 5 2 13 10 6 6 8 8 10 11 12 17 20 24 20 21 23 22 21 18 19 20 17 16 18 16 22 19 29 23 26 23 22 26 25 24 25
17 13 6 6 6 4 9 12 14 10 9 10 10 10 11 12 16 19 23 21 20 23 22 23 21 17 17 18 11 17 5 12 11 27 21 26 19 20 29 23 21 22 21
12 4 7 2 7 12 14 17 12 11 12 11 9 9 11 15 19 22 22 19 20 19 20 20 17 17 16 17 15 8 3 3 11 16 22 16 19 23 27 21 24 25 25
11 7 1 14 15 15 16 13 12 14 14 10 12 11 15 19 21 21 19 20 19 18 19 19 17 19 16 17 17 9 16 15 4 6 18 18 20 27 26 33 22 20 22
9 10 10 15 15 14 10 13 14 13 11 9 13 17 21 22 23 24 22 20 17 19 19 21 19 20 17 16 13 15 16 14 13 5 8 15 26 26 29 28 18 16 12
3 4 10 8 4 5 7 8 7 6 10 16 19 22 23 21 23 22 20 18 18 18 17 17 16 16 16 15 15 16 14 7 10 9 6 12 13 21 32 17 19 11 8
Wind_Direction
155 150 131 125 122 113 104 99 98 95 96 95 94 93 92 92 92 92 90 84 74 69 62 52 41 30 19 13 5 1 359 354 353 352 352 350 341 321 287 249 215 230 240
148 141 129 120 109 103 103 102 99 96 93 91 91 89 86 84 82 78 74 72 65 55 47 38 27 16 4 351 342 336 333 329 327 324 322 318 315 308 283 260 239 258 249
141 136 128 120 110 102 100 98 97 95 92 90 88 87 85 81 76 70 64 58 52 44 36 30 23 14 5 355 346 339 332 326 319 313 309 303 300 298 295 266 254 256 255
139 132 125 122 115 109 105 103 100 96 93 92 87 84 81 78 73 68 62 56 51 45 37 26 20 12 6 358 349 341 335 330 324 319 311 308 304 294 279 268 266 260 261
137 133 128 125 119 116 113 108 104 100 95 90 89 85 83 81 78 67 60 51 44 40 32 23 17 12 6 0 352 345 338 329 321 314 312 310 308 304 299 285 273 257 265
143 138 132 128 122 118 113 107 105 103 100 98 96 88 82 85 79 69 64 60 53 47 44 40 35 31 26 19 13 7 357 340 328 320 318 314 308 304 300 294 285 270 269
147 142 135 131 125 119 112 110 109 106 100 98 99 88 83 82 75 64 55 49 44 39 33 29 24 19 15 11 7 4 0 356 347 335 330 326 319 320 315 300 289 281 272
146 143 138 133 127 122 113 108 104 103 99 96 94 85 77 71 64 57 48 43 40 34 27 21 16 11 6 2 358 354 352 356 351 341 334 332 334 333 317 308 301 293 281
148 148 140 133 129 123 115 108 103 100 96 90 85 80 74 67 57 48 45 40 35 30 22 18 13 7 1 358 355 355 349 347 345 341 335 334 332 327 319 315 316 293 282
157 152 144 138 135 127 117 111 105 102 95 87 89 72 65 58 50 44 39 30 24 18 14 8 4 2 360 359 357 354 349 344 344 339 330 324 319 314 317 312 313 314 289
160 153 147 143 139 134 129 123 116 108 96 91 82 69 59 50 40 32 27 19 14 6 359 356 352 348 347 347 348 346 339 335 334 329 321 320 314 315 312 309 311 300 306
162 158 154 149 149 149 145 139 132 122 110 92 82 74 63 45 37 31 22 11 4 356 348 343 340 338 339 338 336 334 332 328 325 325 319 313 311 308 305 307 302 303 297
167 164 163 162 163 161 158 156 145 132 119 110 104 84 49 28 19 12 3 357 353 344 339 334 329 329 329 328 325 323 323 324 324 324 321 317 311 303 299 302 302 297 297
174 170 167 163 158 152 149 153 150 138 126 116 95 58 21 11 9 2 353 349 342 339 333 327 324 322 319 319 319 321 322 322 321 318 316 315 308 300 301 297 296 294 297
181 174 169 163 157 151 147 146 141 135 129 106 69 29 13 12 4 357 353 346 341 335 329 324 320 318 316 317 317 317 318 317 315 314 309 308 301 296 295 293 294 294 293
179 168 162 158 149 151 149 142 139 140 125 109 77 46 22 8 358 349 348 346 337 330 329 326 321 318 316 315 313 313 313 313 313 310 307 303 302 300 292 288 292 292 291
174 161 154 150 149 147 141 136 138 131 132 113 79 49 10 2 360 358 348 342 329 320 323 322 315 310 308 308 307 309 310 311 309 306 305 305 307 307 295 289 291 292 293
155 150 141 148 149 142 140 140 141 140 128 98 69 32 28 3 351 337 337 337 325 318 322 320 317 313 309 307 309 310 309 308 304 304 305 306 306 302 303 306 298 296 293
151 147 147 146 143 144 150 152 153 151 126 81 27 15 349 337 336 333 328 325 321 321 325 325 321 318 314 312 312 306 308 307 306 308 313 313 312 312 302 307 304 302 299
149 149 143 144 157 164 163 161 189 177 234 301 320 334 331 324 330 327 318 322 323 323 327 330 327 325 320 323 318 310 318 310 304 309 317 311 312 318 315 313 315 308 303
144 143 148 169 172 180 181 210 262 252 265 300 310 318 320 324 331 332 324 325 326 329 330 332 332 329 324 331 326 320 312 315 304 314 310 316 316 320 324 320 320 316 312
136 148 158 165 174 219 275 253 249 278 296 298 297 306 324 332 332 326 326 324 324 328 328 331 332 335 325 326 320 309 318 308 329 323 324 321 330 326 329 329 327 334 322
120 60 105 310 265 239 247 255 271 281 290 299 310 321 330 330 327 323 323 320 322 326 328 330 331 334 316 323 324 303 304 334 319 318 323 328 329 328 333 336 325 319 330
116 139 180 229 246 250 255 270 300 306 305 305 325 330 327 327 327 328 326 324 325 329 334 331 322 329 321 314 318 306 300 293 315 318 319 331 333 337 335 335 328 331 333
146 231 227 235 254 275 291 290 304 305 305 327 338 334 334 334 334 334 328 331 332 330 332 332 324 324 320 312 302 298 307 314 320 317 310 326 328 330 330 336 335 331 347
308 272 261 246 263 321 317 305 315 343 339 346 341 339 336 331 332 334 334 335 330 330 330 327 332 331 328 320 320 317 322 322 325 314 305 318 318 323 329 336 325 329 47